K3MJW-2 Weather Reports


Display with metric or nautical units.
time (UTC)temp
F
wind
direction
speed
MPH
gust
MPH
rain 1hr
in
rain 24hr
in
rain mn
in
humidity
%
barometer
mb
20181017144008 46 288 5.0 9.0 0.00 0.00 0.00 63 1018.3
20181017143704 46 245 2.0 6.0 0.00 0.00 0.00 65 1018.3
20181017143008 46 284 3.0 10.0 0.00 0.00 0.00 64 1018.3
20181017142704 46 299 7.0 10.0 0.00 0.00 0.00 64 1018.3
20181017142007 46 268 2.0 9.0 0.00 0.00 0.00 67 1018.2
20181017141703 46 289 6.0 8.0 0.00 0.00 0.00 66 1018.0
20181017141008 46 280 6.0 12.0 0.00 0.00 0.00 66 1017.9
20181017140704 46 288 6.0 9.0 0.00 0.00 0.00 68 1017.9
20181017140007 46 258 5.0 9.0 0.00 0.00 0.00 69 1017.9
20181017135703 45 259 5.0 6.0 0.00 0.00 0.00 70 1017.8
20181017135007 45 270 5.0 9.0 0.00 0.00 0.00 72 1017.9
20181017134703 45 260 5.0 9.0 0.00 0.00 0.00 73 1017.8
20181017134008 44 206 1.0 10.0 0.00 0.00 0.00 73 1017.8
20181017133703 44 253 5.0 8.0 0.00 0.00 0.00 74 1017.9
20181017133008 44 281 4.0 8.0 0.00 0.00 0.00 75 1017.8
20181017132703 44 279 5.0 7.0 0.00 0.00 0.00 76 1017.8
20181017132008 44 264 4.0 7.0 0.00 0.00 0.00 78 1017.9
20181017131703 43 292 3.0 6.0 0.00 0.00 0.00 78 1017.8
20181017131008 43 274 2.0 7.0 0.00 0.00 0.00 79 1017.7
20181017130703 43 285 3.0 7.0 0.00 0.00 0.00 79 1017.8
20181017130008 42 236 2.0 8.0 0.00 0.00 0.00 80 1017.7
20181017125703 42 255 0.0 5.0 0.00 0.00 0.00 80 1017.7
20181017125007 42 236 1.0 9.0 0.00 0.00 0.00 81 1017.6
20181017124703 42 241 5.0 9.0 0.00 0.00 0.00 81 1017.6
20181017124008 42 229 2.0 7.0 0.00 0.00 0.00 82 1017.6
20181017123703 42 228 3.0 5.0 0.00 0.00 0.00 83 1017.5
20181017123008 41 315 0.0 5.0 0.00 0.00 0.00 84 1017.6
20181017122633 41 256 1.0 5.0 0.00 0.00 0.00 84 1017.6
20181017122008 41 267 1.0 7.0 0.00 0.00 0.00 84 1017.7
20181017121633 41 236 0.0 0.0 0.00 0.00 0.00 84 1017.7
20181017121008 41 236 0.0 0.0 0.00 0.00 0.00 84 1017.7
20181017120633 41 236 0.0 0.0 0.00 0.00 0.00 84 1017.6
20181017120007 41 236 1.0 6.0 0.00 0.00 0.00 84 1017.7
20181017115633 41 260 0.0 0.0 0.00 0.00 0.00 84 1017.6
20181017115008 41 272 0.0 5.0 0.00 0.00 0.00 84 1017.7
20181017114634 41 275 0.0 0.0 0.00 0.00 0.00 84 1017.7
20181017114007 41 264 0.0 5.0 0.00 0.00 0.00 84 1017.6
20181017113603 41 261 0.0 0.0 0.00 0.00 0.00 84 1017.5
20181017113007 41 261 0.0 7.0 0.00 0.00 0.00 84 1017.5
20181017112603 41 254 0.0 0.0 0.00 0.00 0.00 84 1017.5
20181017112008 41 254 0.0 0.0 0.00 0.00 0.00 83 1017.5
20181017111603 41 254 0.0 0.0 0.00 0.00 0.00 83 1017.5
20181017111008 41 254 0.0 6.0 0.00 0.00 0.00 83 1017.4
20181017110603 41 233 0.0 0.0 0.00 0.00 0.00 83 1017.4
20181017110007 41 233 0.0 6.0 0.00 0.00 0.00 83 1017.5
20181017105602 41 216 0.0 0.0 0.00 0.00 0.00 83 1017.5
20181017105007 41 243 0.0 0.0 0.00 0.00 0.00 83 1017.5
20181017104532 41 243 0.0 0.0 0.00 0.00 0.00 83 1017.4
20181017104007 41 243 0.0 5.0 0.00 0.00 0.00 83 1017.4
20181017103532 41 243 0.0 0.0 0.00 0.00 0.00 83 1017.3
20181017103007 41 229 0.0 9.0 0.00 0.00 0.00 83 1017.5
20181017102533 41 229 1.0 0.0 0.00 0.00 0.00 83 1017.5
20181017102008 41 248 0.0 0.0 0.00 0.00 0.00 83 1017.5
20181017101532 41 248 0.0 0.0 0.00 0.00 0.00 83 1017.5
20181017101008 41 248 2.0 5.0 0.00 0.00 0.00 83 1017.5
20181017100532 41 313 0.0 0.0 0.00 0.00 0.00 83 1017.4
20181017100008 41 313 0.0 0.0 0.00 0.00 0.00 83 1017.4
20181017095532 41 313 0.0 0.0 0.00 0.00 0.00 83 1017.4
20181017095008 41 313 0.0 5.0 0.00 0.00 0.00 83 1017.5
20181017094532 41 322 0.0 0.0 0.00 0.00 0.00 82 1017.3
20181017094008 41 335 0.0 3.0 0.00 0.00 0.00 82 1017.2
20181017093532 41 299 0.0 0.0 0.00 0.00 0.00 82 1017.1
20181017093008 41 272 0.0 0.0 0.00 0.00 0.00 82 1017.1
20181017092532 41 272 0.0 0.0 0.00 0.00 0.00 82 1017.2
20181017092008 41 272 0.0 5.0 0.00 0.00 0.00 81 1017.4
20181017091532 41 271 0.0 0.0 0.00 0.00 0.00 81 1017.2
20181017091008 41 271 0.0 0.0 0.00 0.00 0.00 81 1017.2
20181017090532 41 271 0.0 0.0 0.00 0.00 0.00 81 1017.2
20181017090008 41 271 0.0 5.0 0.00 0.00 0.00 81 1017.3
20181017085532 41 274 0.0 0.0 0.00 0.00 0.00 81 1017.4
20181017085008 41 241 0.0 5.0 0.00 0.00 0.00 81 1017.4
20181017084532 41 264 0.0 0.0 0.00 0.00 0.00 81 1017.4
20181017084008 41 264 0.0 0.0 0.00 0.00 0.00 80 1017.3
20181017083532 41 264 0.0 0.0 0.00 0.00 0.00 80 1017.4
20181017083008 42 264 0.0 0.0 0.00 0.00 0.00 79 1017.4
20181017082532 42 264 0.0 0.0 0.00 0.00 0.00 78 1017.5
20181017082007 42 229 0.0 0.0 0.00 0.00 0.00 78 1017.5
20181017081532 42 229 0.0 0.0 0.00 0.00 0.00 78 1017.5
20181017081008 42 229 0.0 6.0 0.00 0.00 0.00 78 1017.6
20181017080532 42 229 0.0 0.0 0.00 0.00 0.00 77 1017.6
20181017080008 42 236 1.0 6.0 0.00 0.00 0.00 77 1017.7
20181017075531 42 320 0.0 0.0 0.00 0.00 0.00 77 1017.7
20181017075008 42 320 1.0 5.0 0.00 0.00 0.00 77 1017.7
20181017074531 42 326 0.0 0.0 0.00 0.00 0.00 77 1017.8
20181017074008 42 251 0.0 0.0 0.00 0.00 0.00 77 1017.8
20181017073531 42 251 0.0 0.0 0.00 0.00 0.00 77 1017.8
20181017073009 42 251 0.0 5.0 0.00 0.00 0.00 77 1017.9
20181017072531 42 302 1.0 5.0 0.00 0.00 0.00 77 1017.8
20181017072007 42 254 0.0 0.0 0.00 0.00 0.00 77 1017.8
20181017071531 42 254 0.0 0.0 0.00 0.00 0.00 77 1017.7
20181017071007 42 254 0.0 6.0 0.00 0.00 0.00 77 1017.8
20181017070531 43 280 0.0 6.0 0.00 0.00 0.00 77 1017.8
20181017070007 42 275 1.0 3.0 0.00 0.00 0.00 78 1017.8
20181017065531 42 171 0.0 0.0 0.00 0.00 0.00 78 1017.8
20181017065007 42 171 0.0 0.0 0.00 0.00 0.00 78 1017.8
20181017064531 42 171 0.0 0.0 0.00 0.00 0.00 78 1017.8
20181017064008 42 171 0.0 0.0 0.00 0.00 0.00 78 1017.8
20181017063604 42 171 0.0 0.0 0.00 0.00 0.00 78 1017.8
20181017063531 42 171 0.0 0.0 0.00 0.00 0.00 78 1017.8
20181017063008 42 171 0.0 3.0 0.00 0.00 0.00 78 1017.9
20181017062531 42 171 0.0 0.0 0.00 0.00 0.00 78 1017.9
20181017062008 42 235 0.0 3.0 0.00 0.00 0.00 78 1018.0
20181017061531 42 239 0.0 0.0 0.00 0.00 0.00 77 1018.0
20181017061007 42 239 0.0 0.0 0.00 0.00 0.00 77 1018.0
20181017060531 42 239 0.0 0.0 0.00 0.00 0.00 77 1018.0
20181017060008 42 239 0.0 0.0 0.00 0.00 0.00 76 1018.0
20181017055531 42 239 0.0 0.0 0.00 0.00 0.00 75 1018.1
20181017055011 42 239 0.0 0.0 0.00 0.00 0.00 75 1018.0
20181017054531 42 239 0.0 0.0 0.00 0.00 0.00 74 1018.0
20181017054008 42 239 0.0 0.0 0.00 0.00 0.00 73 1018.1
20181017053531 42 239 0.0 0.0 0.00 0.00 0.00 73 1018.1
20181017053008 42 239 0.0 0.0 0.00 0.00 0.00 72 1018.1
20181017052531 42 239 0.0 0.0 0.00 0.00 0.00 71 1018.0
20181017052007 43 239 0.0 2.0 0.00 0.00 0.00 71 1017.9
20181017051530 43 239 0.0 0.0 0.00 0.00 0.00 70 1017.9
20181017051007 43 239 0.0 0.0 0.00 0.00 0.00 70 1017.9
20181017050601 43 239 0.0 0.0 0.00 0.00 0.00 69 1017.8
20181017050530 43 239 0.0 0.0 0.00 0.00 0.00 69 1017.8
20181017050008 43 239 0.0 0.0 0.00 0.00 0.00 69 1017.8
20181017045604 43 239 0.0 0.0 0.00 0.00 0.00 68 1017.8
20181017045530 43 239 0.0 0.0 0.00 0.00 0.00 68 1017.8
20181017045007 43 239 0.0 3.0 0.00 0.00 0.00 68 1017.8
20181017044601 43 246 0.0 0.0 0.00 0.00 0.00 68 1017.9
20181017044530 43 246 0.0 0.0 0.00 0.00 0.00 68 1017.9
20181017044008 43 246 0.0 6.0 0.00 0.00 0.00 67 1018.0
20181017043530 43 200 0.0 6.0 0.00 0.00 0.00 67 1018.0
20181017043008 43 192 0.0 0.0 0.00 0.00 0.00 66 1018.0
20181017042530 43 192 0.0 0.0 0.00 0.00 0.00 66 1018.0
20181017042008 43 192 0.0 0.0 0.00 0.00 0.00 66 1018.0
20181017041530 43 192 0.0 0.0 0.00 0.00 0.00 65 1018.0
20181017041008 43 192 0.0 0.0 0.00 0.00 0.00 64 1018.1
20181017040530 43 192 0.0 0.0 0.00 0.00 0.00 64 1018.2
20181017040007 43 192 0.0 0.0 0.00 0.00 0.00 62 1018.1
20181017035530 43 192 0.0 0.0 0.00 0.00 0.00 62 1018.1
20181017035007 43 192 0.0 0.0 0.00 0.00 0.00 62 1018.1
20181017034530 43 192 0.0 0.0 0.00 0.00 0.00 61 1018.0
20181017034008 43 192 0.0 2.0 0.00 0.00 0.00 61 1018.0
20181017033638 43 192 0.0 0.0 0.00 0.00 0.00 61 1018.0
20181017033530 43 192 0.0 0.0 0.00 0.00 0.00 61 1018.0
20181017033008 43 203 0.0 8.0 0.00 0.00 0.00 61 1017.9
20181017032530 43 219 1.0 5.0 0.00 0.00 0.00 61 1017.9
20181017032007 43 176 0.0 0.0 0.00 0.00 0.00 61 1017.9
20181017031530 43 176 0.0 0.0 0.00 0.00 0.00 60 1018.0
20181017031007 43 176 0.0 0.0 0.00 0.00 0.00 60 1017.9
20181017030531 43 176 0.0 0.0 0.00 0.00 0.00 58 1017.8
20181017030010 43 176 0.0 0.0 0.00 0.00 0.00 57 1017.8
20181017025530 43 176 0.0 0.0 0.00 0.00 0.00 56 1017.8
20181017025008 44 176 0.0 0.0 0.00 0.00 0.00 56 1017.7
20181017024530 44 176 0.0 0.0 0.00 0.00 0.00 56 1017.8
20181017024007 44 176 0.0 0.0 0.00 0.00 0.00 55 1017.9
20181017023530 44 176 0.0 0.0 0.00 0.00 0.00 54 1017.8
20181017023007 44 176 0.0 7.0 0.00 0.00 0.00 53 1017.8
20181017022530 44 258 0.0 0.0 0.00 0.00 0.00 53 1017.9
20181017022008 44 258 0.0 0.0 0.00 0.00 0.00 53 1017.9
20181017021530 44 258 0.0 0.0 0.00 0.00 0.00 52 1017.9
20181017021007 44 258 0.0 0.0 0.00 0.00 0.00 52 1017.8
20181017020700 44 258 0.0 0.0 0.00 0.00 0.00 52 1017.8
20181017020530 44 258 0.0 0.0 0.00 0.00 0.00 52 1017.8
20181017020007 44 258 0.0 0.0 0.00 0.00 0.00 50 1017.8
20181017015008 44 258 0.0 0.0 0.00 0.00 0.00 50 1017.7
20181017014530 44 258 0.0 0.0 0.00 0.00 0.00 49 1017.7
20181017014007 44 258 0.0 0.0 0.00 0.00 0.00 49 1017.6
20181017013529 44 258 0.0 0.0 0.00 0.00 0.00 49 1017.5
20181017013007 44 258 0.0 0.0 0.00 0.00 0.00 50 1017.4
20181017012529 44 258 0.0 0.0 0.00 0.00 0.00 50 1017.4
20181017012009 44 258 0.0 0.0 0.00 0.00 0.00 51 1017.5
20181017011529 44 258 0.0 0.0 0.00 0.00 0.00 50 1017.5
20181017011008 44 258 0.0 0.0 0.00 0.00 0.00 48 1017.5
20181017010651 44 258 0.0 0.0 0.00 0.00 0.00 47 1017.5
20181017010529 44 258 0.0 0.0 0.00 0.00 0.00 47 1017.5
20181017010007 44 258 0.0 0.0 0.00 0.00 0.00 46 1017.4
20181017005529 44 258 0.0 0.0 0.00 0.00 0.00 45 1017.5
20181017005007 44 258 0.0 0.0 0.00 0.00 0.00 44 1017.5
20181017004529 44 258 0.0 0.0 0.00 0.00 0.00 44 1017.5
20181017004007 45 258 0.0 0.0 0.00 0.00 0.00 43 1017.6
20181017003529 45 258 0.0 0.0 0.00 0.00 0.00 43 1017.6
20181017003008 45 258 0.0 0.0 0.00 0.00 0.00 42 1017.6
20181017002615 45 258 0.0 0.0 0.00 0.00 0.00 41 1017.6
20181017002529 45 258 0.0 0.0 0.00 0.00 0.00 41 1017.6
20181017002008 45 258 0.0 0.0 0.00 0.00 0.00 40 1017.5
20181017001459 46 258 0.0 0.0 0.00 0.00 0.00 39 1017.5
20181017001007 46 258 0.0 0.0 0.00 0.00 0.00 39 1017.6
20181017000459 46 258 0.0 0.0 0.00 0.00 0.00 38 1017.6
20181017000007 46 258 0.0 0.0 0.00 0.00 0.00 38 1017.5
20181016235459 46 258 0.0 0.0 0.00 0.00 0.00 37 1017.5
20181016235008 46 258 0.0 0.0 0.00 0.00 0.00 37 1017.4
20181016234459 46 258 0.0 0.0 0.00 0.00 0.00 37 1017.4
20181016234007 46 258 0.0 0.0 0.00 0.00 0.00 36 1017.3
20181016233459 46 258 0.0 0.0 0.00 0.00 0.00 35 1017.3
20181016233008 47 258 0.0 0.0 0.00 0.00 0.00 35 1017.2
20181016232530 47 258 0.0 0.0 0.00 0.00 0.00 35 1017.2
20181016232459 47 258 0.0 0.0 0.00 0.00 0.00 35 1017.2
20181016232008 47 258 0.0 0.0 0.00 0.00 0.00 35 1017.1
20181016231459 47 258 0.0 0.0 0.00 0.00 0.00 34 1017.1
20181016231008 47 258 0.0 0.0 0.00 0.00 0.00 34 1017.1
20181016230459 47 258 0.0 0.0 0.00 0.00 0.00 33 1017.2
20181016230008 47 258 0.0 0.0 0.00 0.00 0.00 33 1017.3
20181016225459 47 258 0.0 0.0 0.00 0.00 0.00 32 1017.3
20181016225008 47 258 0.0 0.0 0.00 0.00 0.00 32 1017.4
20181016224459 48 258 0.0 0.0 0.00 0.00 0.00 31 1017.4
20181016224007 48 258 0.0 0.0 0.00 0.00 0.00 30 1017.5
20181016223459 48 258 0.0 0.0 0.00 0.00 0.00 29 1017.6
20181016223007 48 258 0.0 0.0 0.00 0.00 0.00 28 1017.5
20181016222459 48 258 0.0 0.0 0.00 0.00 0.00 28 1017.5
20181016222008 48 258 0.0 0.0 0.00 0.00 0.00 28 1017.3
20181016221459 48 258 0.0 0.0 0.00 0.00 0.00 26 1017.2
20181016221009 49 258 0.0 0.0 0.00 0.01 0.00 25 1017.2
20181016220459 49 258 0.0 0.0 0.00 0.01 0.00 24 1017.2
20181016220008 49 258 0.0 0.0 0.00 0.01 0.00 23 1017.2
20181016215458 49 258 0.0 0.0 0.00 0.01 0.00 23 1017.3
20181016215007 49 258 0.0 7.0 0.00 0.01 0.00 23 1017.3
20181016214458 49 265 0.0 0.0 0.00 0.01 0.00 24 1017.4
20181016214007 49 265 0.0 0.0 0.00 0.01 0.00 23 1017.4
20181016213459 50 265 0.0 0.0 0.00 0.01 0.00 23 1017.3
20181016213007 50 265 0.0 0.0 0.00 0.01 0.00 23 1017.2
20181016212601 50 265 0.0 0.0 0.00 0.01 0.00 24 1017.3
20181016212458 50 265 0.0 0.0 0.00 0.01 0.00 24 1017.3
20181016212007 50 265 0.0 2.0 0.00 0.01 0.00 22 1017.4
20181016211458 50 260 0.0 0.0 0.00 0.01 0.00 22 1017.4
20181016211007 50 260 2.0 6.0 0.00 0.01 0.00 22 1017.4
20181016210459 50 263 2.0 3.0 0.00 0.02 0.00 22 1017.4
20181016210007 51 277 0.0 6.0 0.00 0.02 0.00 21 1017.4
20181016205458 51 271 3.0 5.0 0.00 0.03 0.00 20 1017.5
20181016205008 51 250 3.0 6.0 0.00 0.03 0.00 21 1017.8
20181016204458 52 268 5.0 6.0 0.00 0.03 0.00 21 1017.8
20181016204007 52 256 0.0 6.0 0.00 0.04 0.00 20 1017.8
20181016203458 52 256 2.0 2.0 0.00 0.04 0.00 22 1017.8
20181016203007 52 261 2.0 6.0 0.00 0.04 0.00 20 1017.8
20181016202458 52 264 1.0 6.0 0.00 0.04 0.00 20 1017.8
20181016202007 52 244 1.0 7.0 0.00 0.04 0.00 18 1017.8
20181016201458 52 217 2.0 2.0 0.00 0.04 0.00 17 1017.9
20181016201007 52 264 2.0 6.0 0.00 0.04 0.00 19 1018.0
20181016200458 52 246 0.0 0.0 0.00 0.05 0.00 20 1018.1
20181016200007 52 252 2.0 7.0 0.00 0.05 0.00 20 1018.1
20181016195458 52 220 0.0 0.0 0.00 0.05 0.00 23 1018.3
20181016195008 52 280 0.0 7.0 0.00 0.05 0.00 22 1018.4
20181016194458 51 286 0.0 1.0 0.00 0.05 0.00 21 1018.3
20181016194007 51 254 1.0 7.0 0.00 0.05 0.00 21 1018.2
20181016193458 51 239 2.0 5.0 0.00 0.06 0.00 20 1018.4
20181016193008 51 280 3.0 7.0 0.00 0.07 0.00 22 1018.3
20181016192458 51 327 2.0 5.0 0.00 0.07 0.00 21 1018.5
20181016192008 50 292 2.0 8.0 0.00 0.08 0.00 21 1018.3
20181016191458 50 277 1.0 6.0 0.00 0.10 0.00 22 1018.6
20181016191007 51 298 2.0 7.0 0.00 0.11 0.00 22 1018.5
20181016190458 51 264 0.0 0.0 0.00 0.16 0.00 23 1018.8
20181016190008 51 264 0.0 10.0 0.00 0.16 0.00 23 1018.6
20181016185458 51 298 0.0 7.0 0.00 0.16 0.00 28 1018.8
20181016185007 50 298 0.0 7.0 0.00 0.16 0.00 26 1018.8
20181016184458 50 281 5.0 7.0 0.00 0.16 0.00 26 1019.0
20181016184008 50 241 0.0 9.0 0.00 0.16 0.00 26 1018.9
20181016183457 50 253 2.0 5.0 0.00 0.16 0.00 26 1019.1
20181016183008 51 284 0.0 6.0 0.00 0.16 0.00 29 1019.2
20181016182457 50 284 0.0 0.0 0.00 0.16 0.00 30 1019.3
20181016182008 50 284 1.0 8.0 0.00 0.16 0.00 29 1019.4
20181016181457 50 328 0.0 0.0 0.00 0.16 0.00 30 1019.6
20181016181007 50 274 3.0 7.0 0.00 0.16 0.00 30 1019.7
20181016180457 50 296 1.0 7.0 0.00 0.16 0.00 34 1019.8
20181016180007 50 281 0.0 7.0 0.00 0.16 0.00 34 1020.0
20181016175457 49 310 2.0 3.0 0.00 0.16 0.00 32 1020.0
20181016175007 49 283 3.0 7.0 0.00 0.16 0.00 34 1020.1
20181016174457 49 242 1.0 7.0 0.00 0.16 0.00 34 1020.3
20181016174008 49 263 0.0 7.0 0.00 0.16 0.00 35 1020.2
20181016173457 49 240 1.0 0.0 0.00 0.16 0.00 35 1020.4
20181016173007 49 268 1.0 6.0 0.00 0.16 0.00 36 1020.5
20181016172457 49 295 1.0 5.0 0.00 0.16 0.00 40 1020.7
20181016172007 48 228 2.0 6.0 0.00 0.16 0.00 39 1020.8
20181016171427 48 256 0.0 0.0 0.00 0.16 0.00 39 1020.7
20181016171008 48 238 1.0 7.0 0.00 0.16 0.00 40 1020.6
20181016170427 47 273 1.0 3.0 0.00 0.16 0.00 41 1020.8
20181016170007 47 203 0.0 6.0 0.00 0.16 0.00 41 1020.8
20181016165427 47 237 0.0 0.0 0.00 0.16 0.00 42 1021.3
20181016165007 47 270 3.0 6.0 0.00 0.16 0.00 42 1021.4
20181016164427 47 258 0.0 0.0 0.00 0.16 0.00 43 1021.5
20181016164008 47 258 0.0 6.0 0.00 0.16 0.00 42 1021.6
20181016163427 47 258 1.0 0.0 0.00 0.16 0.00 44 1021.7
20181016163007 47 250 1.0 6.0 0.00 0.16 0.00 44 1021.7
20181016162427 47 283 2.0 5.0 0.00 0.16 0.00 42 1021.7
20181016162007 47 290 3.0 10.0 0.00 0.16 0.00 42 1021.6
20181016161427 47 245 1.0 7.0 0.00 0.16 0.00 45 1021.9
20181016161007 47 241 0.0 10.0 0.00 0.16 0.00 44 1022.1
20181016160427 47 286 3.0 7.0 0.00 0.16 0.00 42 1022.2
20181016160008 47 214 2.0 7.0 0.00 0.16 0.00 42 1022.2
20181016155427 47 217 0.0 0.0 0.00 0.16 0.00 48 1022.4
20181016155007 47 217 1.0 5.0 0.00 0.16 0.00 50 1022.4
20181016154427 47 296 0.0 0.0 0.00 0.16 0.00 49 1022.4
20181016154007 46 266 1.0 7.0 0.00 0.16 0.00 49 1022.6
20181016153427 46 252 2.0 5.0 0.00 0.16 0.00 48 1022.6
20181016153007 46 239 2.0 8.0 0.00 0.16 0.00 49 1022.6
20181016152531 46 306 2.0 0.0 0.00 0.16 0.00 52 1022.9
20181016152427 46 306 2.0 0.0 0.00 0.16 0.00 52 1022.9
20181016152007 46 236 0.0 0.0 0.00 0.16 0.00 54 1023.0
20181016151524 45 236 0.0 0.0 0.00 0.16 0.00 54 1023.1
20181016151427 45 236 0.0 0.0 0.00 0.16 0.00 54 1023.1
20181016151007 45 236 0.0 0.0 0.00 0.16 0.00 56 1023.0
20181016150427 45 236 0.0 0.0 0.00 0.16 0.00 54 1023.0
20181016150006 45 236 0.0 7.0 0.00 0.16 0.00 55 1022.9
20181016145426 45 276 5.0 6.0 0.00 0.16 0.00 54 1023.1
20181016145007 45 299 0.0 7.0 0.00 0.16 0.00 56 1023.3